Weather in Verhnyaya Ivolga

Russia / Republic of Buryatia     51°45′09″N   107°12′01″E
temp.,
°C
wind,
m/s
gust,
m/s
humid.,
%
clouds,
%
prec.,
mm/h
press.,
hPa
HPBL,
m
8 may, sat
sat823:00+1nw227520 0.0 101525
02:000n11775 0.0 101410
05:00−1nne118432 0.0 101510
08:00+3s126179 0.0 1013317
11:00+9sw443999 0.0 10111185
14:00+12ssw02316 0.0 10091789
17:00+11n533731 0.0 10091634
20:00+6nnw23540 0.0 101152
9 may, sun
sun923:00+3w22783 0.0 101319
02:00+2wnw228597 0.0 101319
05:00+3wsw1187100 0.0 101311
08:00+6sw2272100 0.0 1012443
11:00+11sw2451100 0.1 10091645
14:00+13w2445100 0.6 10071775
17:00+14nw2437100 0.3 10062063
20:00+10nw3359100 0.3 100664
10 may, mon
mon1023:00+6nw1286100 0.4 1009111
02:00+6wnw1481100 0.5 1010716
05:00+4nnw1387100 0.1 1010256
08:00+5nw2674100 0.1 1011907
11:00+8nw5654100 0.1 10111415
14:00+9nw5551100 0.1 10111617
17:00+8nw455179 0.1 10121416
20:00+4wnw377049 0.1 1014621
11 may, tue
tue1123:00+2w238734 0.0 1015127
02:00+1wsw229293 0.0 101468
05:00+2wsw2686100 0.1 1013431
08:00+3nw2688100 1.1 1014475
11:00+7nnw486786 0.0 1014974
14:00+11nnw58465 0.0 10131548
17:00+10nw57506 0.0 10131462
20:00+6w34755 0.0 1015133
12 may, wed
wed1223:00+3w22865 0.0 101621
02:00+2wsw22833 0.0 101518
05:00+1wsw11834 0.0 101511
08:00+7ssw23580 0.0 1013382
11:00+12ssw353626 0.0 10101753
14:00+15wnw353196 0.1 10072477
17:00+15nw563040 0.0 10052229
20:00+10nnw2353100 0.0 100861